FW4465 Weather Reports


time (UTC)temp
F
wind
direction
speed
knots
gust
knots
rain 1hr
in
rain 24hr
in
rain mn
in
humidity
%
barometer
mb
20260507150038 58 290 0.0 6.1 0.00 0.28 0.14 71 1014.1
20260507144526 57 283 1.7 7.8 0.00 0.28 0.14 71 1014.3
20260507143011 57 355 0.9 5.2 0.00 0.28 0.14 71 1014.2
20260507141526 57 313 0.0 5.2 0.00 0.28 0.14 73 1014.3
20260507140018 57 321 1.7 7.0 0.00 0.28 0.14 71 1014.3
20260507134515 57 328 1.7 6.1 0.00 0.28 0.14 71 1014.3
20260507133019 56 326 0.9 8.7 0.00 0.28 0.14 71 1014.3
20260507131515 56 302 0.0 4.3 0.00 0.28 0.14 75 1014.3
20260507130010 55 252 1.7 6.1 0.00 0.28 0.14 74 1014.2
20260507124510 55 294 0.0 4.3 0.00 0.28 0.14 75 1014.1
20260507123013 55 324 0.0 2.6 0.00 0.28 0.14 76 1014.1
20260507121522 55 336 0.0 3.5 0.00 0.28 0.14 76 1014.0
20260507120008 55 292 0.0 3.5 0.00 0.28 0.14 77 1013.9
20260507114528 55 262 0.0 3.5 0.00 0.28 0.14 77 1013.8
20260507113033 55 301 1.7 5.2 0.00 0.28 0.14 77 1013.9
20260507111524 54 132 0.0 4.3 0.00 0.28 0.14 74 1013.7
20260507110029 54 279 0.0 7.0 0.00 0.28 0.14 73 1013.9
20260507104522 54 278 1.7 8.7 0.00 0.28 0.14 73 1013.9
20260507101513 53 214 0.0 5.2 0.00 0.28 0.14 79 1013.7
20260507094514 51 297 0.0 5.2 0.00 0.28 0.14 84 1013.9
20260507093009 51 272 0.0 4.3 0.00 0.28 0.14 85 1013.6
20260507091531 50 187 0.0 4.3 0.00 0.28 0.14 85 1013.6
20260507084519 49 289 0.0 3.5 0.00 0.28 0.14 83 1013.1
20260507083005 49 300 0.0 2.6 0.00 0.28 0.14 83 1013.0
20260507081501 49 292 0.0 2.6 0.00 0.28 0.14 83 1012.9
20260507080016 48 265 0.0 3.5 0.00 0.28 0.14 83 1012.7
20260507074555 48 277 0.0 3.5 0.01 0.28 0.14 84 1012.6
20260507073102 48 296 0.0 1.7 0.01 0.28 0.14 84 1012.5
20260507071552 48 295 0.0 3.5 0.02 0.28 0.14 84 1012.3
20260507070057 48 289 0.0 0.9 0.02 0.28 0.14 84 1012.1
20260507064553 48 289 0.0 2.6 0.03 0.28 0.14 84 1012.0
20260507063046 48 290 0.0 1.7 0.03 0.27 0.13 84 1011.8
20260507061545 48 325 0.0 3.5 0.02 0.26 0.13 84 1011.7
20260507060042 48 267 0.0 2.6 0.02 0.25 0.12 84 1011.5
20260507054541 48 300 0.0 2.6 0.02 0.24 0.11 84 1011.3
20260507053039 48 319 0.0 4.3 0.02 0.24 0.10 85 1011.2
20260507051534 48 284 0.0 2.6 0.02 0.24 0.10 85 1011.1
20260507050035 48 309 0.0 0.9 0.01 0.23 0.09 85 1010.9
20260507044531 48 309 0.0 0.0 0.02 0.23 0.09 85 1010.6
20260507043029 48 309 0.0 0.0 0.01 0.22 0.09 85 1010.5
20260507041527 48 274 0.0 2.6 0.01 0.22 0.09 85 1010.3
20260507040024 49 273 0.0 2.6 0.02 0.22 0.09 85 1010.2
20260507034523 49 188 0.0 3.5 0.01 0.21 0.08 85 1010.1
20260507033028 49 229 0.0 4.3 0.01 0.21 0.08 85 1009.8
20260507031524 49 140 0.0 0.0 0.01 0.21 0.08 85 1009.7
20260507030019 49 140 0.0 1.7 0.00 0.20 0.07 85 1009.6
20260507024520 49 139 0.0 2.6 0.01 0.20 0.07 85 1009.4
20260507023010 49 136 0.0 3.5 0.02 0.20 0.07 85 1009.4
20260507021509 49 136 0.0 3.5 0.03 0.20 0.07 85 1009.3
20260507020009 49 134 0.0 1.7 0.05 0.20 0.07 85 1009.2
20260507014522 50 134 0.0 2.6 0.04 0.20 0.06 85 1009.1
20260507013018 50 138 0.0 0.0 0.03 0.19 0.06 85 1008.9
20260507011528 50 138 0.0 1.7 0.02 0.17 0.04 85 1008.9
20260507010118 49 138 0.0 0.0 0.01 0.17 0.03 85 1009.0
20260507004517 49 138 0.0 0.0 0.00 0.16 0.02 85 1008.9
20260507003015 49 138 0.0 0.0 0.00 0.16 0.02 85 1008.9
20260507001519 50 138 0.0 0.0 0.00 0.16 0.02 85 1008.9
20260507000014 50 138 0.0 0.0 0.01 0.16 0.02 85 1008.8
20260506234513 50 138 0.0 2.6 0.01 0.16 0.02 85 1008.9
20260506233013 50 139 0.0 0.9 0.02 0.16 0.02 85 1008.9
20260506231511 50 139 0.0 0.0 0.02 0.16 0.02 85 1009.0
20260506230010 50 138 0.0 3.5 0.02 0.15 0.02 85 1009.0
20260506224509 50 138 0.0 0.9 0.02 0.15 0.02 85 1009.0
20260506223014 50 138 0.0 2.6 0.01 0.14 0.01 85 1009.0
20260506221506 50 198 0.0 3.5 0.00 0.13 0.00 85 1008.9
20260506220004 51 140 0.0 3.5 0.00 0.13 0.13 85 1008.7
20260506214502 51 150 0.0 0.0 0.00 0.13 0.13 85 1008.5
20260506213001 51 142 0.0 4.3 0.00 0.13 0.13 85 1008.3
20260506211600 51 159 0.0 0.9 0.00 0.13 0.13 85 1008.3
20260506210058 51 137 0.0 0.0 0.02 0.13 0.13 84 1008.2
20260506204559 51 137 0.0 0.0 0.02 0.13 0.13 85 1008.1
20260506203057 51 136 0.0 0.0 0.05 0.13 0.13 85 1008.1
20260506201557 51 136 0.9 3.5 0.06 0.13 0.13 85 1008.1
20260506200059 52 137 0.0 3.5 0.06 0.12 0.12 85 1008.0
20260506194555 52 140 0.0 3.5 0.06 0.11 0.11 85 1008.0
20260506193052 52 108 0.0 1.7 0.06 0.09 0.09 85 1007.6
20260506191550 52 134 0.0 0.0 0.05 0.07 0.07 85 1007.3
20260506190052 53 133 0.0 2.6 0.04 0.06 0.06 85 1006.9
20260506184551 53 144 0.0 4.3 0.04 0.05 0.05 85 1006.8
20260506183049 54 146 0.0 0.0 0.03 0.03 0.03 85 1006.6
20260506181545 54 144 0.0 3.5 0.02 0.02 0.02 85 1006.5
20260506180047 54 144 0.0 1.7 0.02 0.02 0.02 84 1006.5
20260506174545 55 154 0.0 1.7 0.01 0.01 0.01 84 1006.4
20260506173121 55 140 0.0 2.6 0.00 0.00 0.00 84 1006.2
20260506171543 55 284 0.0 1.7 0.00 0.00 0.00 83 1006.1
20260506170045 55 307 0.0 2.6 0.00 0.00 0.00 83 1006.1
20260506164548 55 182 0.0 0.0 0.00 0.00 0.00 83 1006.1
20260506163043 55 182 0.0 0.9 0.00 0.00 0.00 82 1006.0
20260506161542 55 313 0.0 0.9 0.00 0.00 0.00 82 1006.1
20260506160045 55 327 0.0 2.6 0.00 0.00 0.00 82 1005.9
20260506154548 55 259 0.0 2.6 0.00 0.00 0.00 82 1005.8
20260506153046 55 288 0.0 0.9 0.00 0.00 0.00 82 1005.8
20260506151540 56 288 0.0 1.7 0.00 0.00 0.00 82 1005.7